Simultaneous Nadir Overpasses (SNOs) Predictions

Prediction of SNOs between AQUA and NPP Satellite Orbit:

Table of predicted SNOs for the next 14.0 days since TLE Epoch: 6/6/2020
Index Date (AQUA) Time (AQUA) Lat,Lon (AQUA) SZA (AQUA ) Date (NPP) Time (NPP) Lat,Lon (NPP) SZA (NPP ) Distance(km) Time Diff (sec)
1 06/06/2020 22:38:14 -76.05,-100.34 105.19 06/06/2020 22:38:05 -76.06,-100.31 105.19 0.94 9
2 06/06/2020 23:27:22 76.87, 70.05 73.83 06/06/2020 23:28:31 76.87, 70.02 73.78 0.98 69
3 06/09/2020 14:05:34 75.06,-154.93 75.76 06/09/2020 14:04:34 75.06,-155.00 75.83 1.90 60
4 06/09/2020 14:54:36 -76.35, 16.50 105.75 06/09/2020 14:54:52 -76.35, 16.51 105.76 0.38 16
5 06/12/2020 06:21:55 75.46, -37.95 75.15 06/12/2020 06:21:20 75.46, -38.02 75.20 2.11 35
6 06/12/2020 07:10:59 -76.64, 133.35 106.25 06/12/2020 07:11:40 -76.64, 133.37 106.28 0.30 41
7 06/14/2020 22:38:17 75.81, 78.92 74.65 06/14/2020 22:38:07 75.80, 78.86 74.67 1.94 10
8 06/14/2020 23:27:22 -76.92,-109.76 106.69 06/14/2020 23:28:28 -76.93,-109.74 106.75 0.63 66
9 06/17/2020 14:05:33 -75.22, 25.48 104.73 06/17/2020 14:04:30 -75.22, 25.50 104.68 0.61 63




NCC Satellite Simultaneous Nadir Overpasses (SNOs) Prediction Service
